K6OUA-11 Weather Reports


time (UTC)temp
C
wind
direction
speed
KPH
gust
KPH
rain 1hr
cm
rain 24hr
cm
rain mn
cm
humidity
%
barometer
mb
20260906193451 18 167 3.2 9.7 0.00 0.48 0.00 92
20260906193249 18 151 3.2 9.7 0.00 0.48 0.00 91
20260906193049 18 108 4.8 11.3 0.00 0.48 0.00 91
20260906192845 18 88 3.2 11.3 0.00 0.48 0.00 91
20260906192643 18 105 3.2 9.7 0.00 0.48 0.00 92
20260906192442 18 122 6.4 9.7 0.00 0.46 0.00 91
20260906192240 18 126 4.8 12.9 0.00 0.46 0.00 91
20260906192038 18 125 4.8 12.9 0.00 0.46 0.00 92
20260906191836 18 106 6.4 12.9 0.00 0.46 0.00 91
20260906191634 18 142 6.4 16.1 0.00 0.46 0.00 91
20260906191230 17 116 12.9 12.9 0.00 0.46 0.00 91
20260906191028 17 112 8.0 12.9 0.00 0.46 0.00 91
20260906190624 18 104 11.3 9.7 0.00 0.43 0.00 89
20260906190221 18 91 4.8 0.0 0.00 0.43 0.00 89
20260906190019 18 111 6.4 0.0 0.00 0.43 0.00 90
20260906185817 18 94 0.0 0.0 0.00 0.43 0.00 90
20260906185615 18 94 0.0 1.6 0.00 0.43 0.00 90
20260906185413 18 94 0.0 1.6 0.00 0.43 0.00 90
20260906185211 18 94 0.0 0.0 0.00 0.43 0.00 90
20260906185009 18 94 0.0 0.0 0.00 0.43 0.00 90
20260906184807 18 116 1.6 0.0 0.00 0.43 0.00 90
20260906184605 18 153 0.0 1.6 0.00 0.43 0.00 90
20260906184403 18 153 0.0 1.6 0.00 0.43 0.00 89
20260906184202 18 153 0.0 3.2 0.00 0.43 0.00 89
20260906183758 18 219 0.0 3.2 0.00 0.41 0.00 89
20260906183556 18 233 0.0 6.4 0.00 0.41 0.00 90
20260906183354 18 250 1.6 6.4 0.00 0.41 0.00 89
20260906183152 18 281 6.4 6.4 0.00 0.41 0.00 90
20260906182950 18 295 4.8 6.4 0.00 0.41 0.00 90
20260906182748 18 275 0.0 6.4 0.00 0.41 0.00 90
20260906182546 18 275 0.0 8.0 0.00 0.41 0.00 90
20260906182345 18 265 0.0 8.0 0.00 0.41 0.00 90
20260906182143 18 282 4.8 6.4 0.00 0.41 0.00 89
20260906181941 18 274 6.4 6.4 0.00 0.41 0.00 90
20260906181739 18 279 3.2 6.4 0.00 0.41 0.00 90
20260906181335 18 291 3.2 6.4 0.00 0.41 0.00 89
20260906180931 18 264 1.6 12.9 0.00 0.38 0.00 90
20260906180729 18 281 9.7 9.7 0.00 0.38 0.00 89
20260906180527 18 278 4.8 9.7 0.00 0.38 0.00 89
20260906180325 18 288 3.2 9.7 0.00 0.38 0.00 90
20260906180124 18 271 6.4 11.3 0.00 0.38 0.00 90
20260906175922 18 261 9.7 11.3 0.00 0.36 0.00 90
20260906175316 18 302 6.4 9.7 0.00 0.36 0.00 89
20260906175114 18 305 6.4 6.4 0.00 0.33 0.00 89
20260906174912 18 291 6.4 6.4 0.00 0.33 0.00 89
20260906174508 18 299 4.8 6.4 0.00 0.33 0.00 87
20260906174306 18 295 3.2 6.4 0.00 0.30 0.00 87
20260906174105 18 296 3.2 4.8 0.00 0.30 0.00 86
20260906173903 18 309 3.2 4.8 0.00 0.30 0.00 86
20260906173701 18 295 3.2 8.0 0.00 0.28 0.00 85
20260906173259 18 298 3.2 8.0 0.00 0.25 0.00 85
20260906172651 18 302 4.8 11.3 0.00 0.20 0.00 84
20260906172249 18 305 3.2 11.3 0.00 0.20 0.00 84
20260906171844 18 275 6.4 9.7 0.00 0.18 0.00 84
20260906171642 18 296 3.2 12.9 0.00 0.15 0.00 84
20260906171440 18 303 6.4 12.9 0.00 0.15 0.00 83
20260906171238 18 265 6.4 11.3 0.00 0.15 0.00 83
20260906171036 18 275 11.3 11.3 0.00 0.13 0.00 83
20260906170836 19 286 8.0 11.3 0.00 0.10 0.00 82
20260906170632 19 272 6.4 12.9 0.00 0.10 0.00 81
20260906170432 19 275 6.4 12.9 0.00 0.08 0.00 81
20260906170230 19 265 9.7 9.7 0.00 0.08 0.00 80
20260906165825 20 268 9.7 9.7 0.00 0.05 0.00 78
20260906165624 20 278 8.0 8.0 0.00 0.03 0.00 76
20260906165421 20 292 4.8 8.0 0.00 0.03 0.00 75
20260906165219 20 296 4.8 8.0 0.00 0.03 0.00 75
20260906165017 20 306 4.8 8.0 0.00 0.00 0.00 74
20260906164817 20 275 6.4 8.0 0.00 0.00 0.00 77
20260906164613 20 296 4.8 9.7 0.00 0.00 0.00 77
20260906164413 20 295 4.8 9.7 0.00 0.00 0.00 79
20260906164209 20 305 4.8 6.4 0.00 0.00 0.00 79
20260906164007 20 274 8.0 6.4 0.00 0.00 0.00 78
20260906163807 20 310 4.8 6.4 0.00 0.00 0.00 79
20260906163605 20 291 4.8 0.0 0.00 0.00 0.00 80
20260906163403 20 291 4.8 0.0 0.00 0.00 0.00 79
20260906163201 20 66 0.0 0.0 0.00 0.00 0.00 77
20260906162959 20 66 0.0 0.0 0.00 0.00 0.00 77
20260906162757 20 66 0.0 0.0 0.00 0.00 0.00 76
20260906162555 20 66 0.0 0.0 0.00 0.00 0.00 75
20260906162353 20 66 0.0 0.0 0.00 0.00 0.00 75
20260906162151 20 66 0.0 0.0 0.00 0.00 0.00 74
20260906161950 20 66 0.0 0.0 0.00 0.00 0.00 74
20260906161748 20 66 0.0 0.0 0.00 0.00 0.00 74
20260906161545 20 66 0.0 0.0 0.00 0.00 0.00 73
20260906161343 20 66 0.0 0.0 0.00 0.00 0.00 73
20260906161142 21 66 0.0 0.0 0.00 0.00 0.00 72
20260906160939 21 66 0.0 0.0 0.00 0.00 0.00 72
20260906160736 21 66 0.0 3.2 0.00 0.00 0.00 72
20260906160535 21 66 0.0 3.2 0.00 0.00 0.00 72
20260906160334 21 66 0.0 3.2 0.00 0.00 0.00 71
20260906160131 21 66 0.0 6.4 0.00 0.00 0.00 71
20260906155929 21 66 0.0 6.4 0.00 0.00 0.00 70
20260906155728 21 111 3.2 8.0 0.00 0.00 0.00 69
20260906155526 21 113 1.6 8.0 0.00 0.00 0.00 67
20260906155324 21 118 4.8 8.0 0.00 0.00 0.00 66
20260906155122 21 122 4.8 9.7 0.00 0.00 0.00 66
20260906154920 21 137 4.8 9.7 0.00 0.00 0.00 66
20260906154716 21 119 8.0 9.7 0.00 0.00 0.00 66
20260906154314 21 135 1.6 9.7 0.00 0.00 0.00 65
20260906154112 21 146 4.8 14.5 0.00 0.00 0.00 65
20260906153910 21 140 3.2 14.5 0.00 0.00 0.00 65
20260906153708 21 123 4.8 14.5 0.00 0.00 0.00 65
20260906153304 21 111 9.7 14.5 0.00 0.00 0.00 65
20260906153102 21 109 6.4 14.5 0.00 0.00 0.00 65
20260906152900 21 118 8.0 14.5 0.00 0.00 0.00 65
20260906152658 21 101 8.0 8.0 0.00 0.00 0.00 64
20260906152456 21 109 3.2 8.0 0.00 0.00 0.00 63
20260906152254 21 115 4.8 8.0 0.00 0.00 0.00 62
20260906152051 21 60 1.6 9.7 0.00 0.00 0.00 62
20260906151851 21 137 1.6 9.7 0.00 0.00 0.00 62
20260906151648 21 132 3.2 9.7 0.00 0.00 0.00 61
20260906151446 21 129 4.8 9.7 0.00 0.00 0.00 60
20260906151245 21 106 1.6 8.0 0.00 0.00 0.00 60
20260906151043 21 160 3.2 8.0 0.00 0.00 0.00 60
20260906150840 21 109 4.8 8.0 0.00 0.00 0.00 60
20260906150639 20 136 3.2 12.9 0.00 0.00 0.00 60
20260906150437 20 102 3.2 12.9 0.00 0.00 0.00 60
20260906150235 20 97 9.7 11.3 0.00 0.00 0.00 60
20260906150033 21 104 4.8 11.3 0.00 0.00 0.00 60
20260906145831 20 130 1.6 11.3 0.00 0.00 0.00 59
20260906145427 20 95 8.0 16.1 0.00 0.00 0.00 59
20260906145225 20 118 6.4 11.3 0.00 0.00 0.00 59
20260906145023 20 95 11.3 11.3 0.00 0.00 0.00 59
20260906144821 20 109 4.8 11.3 0.00 0.00 0.00 58
20260906144617 20 144 4.8 11.3 0.00 0.00 0.00 58
20260906144417 20 144 3.2 11.3 0.00 0.00 0.00 57
20260906144213 20 144 4.8 12.9 0.00 0.00 0.00 57
20260906144012 20 120 1.6 12.9 0.00 0.00 0.00 57
20260906143812 20 95 0.0 12.9 0.00 0.00 0.00 57
20260906143609 20 75 6.4 22.5 0.00 0.00 0.00 57
20260906143408 20 125 6.4 22.5 0.00 0.00 0.00 57
20260906142800 20 81 6.4 27.4 0.00 0.00 0.00 57
20260906142600 20 92 11.3 16.1 0.00 0.00 0.00 57
20260906142358 20 115 16.1 16.1 0.00 0.00 0.00 57
20260906142156 21 137 8.0 19.3 0.00 0.00 0.00 56
20260906141952 21 130 9.7 19.3 0.00 0.00 0.00 54
20260906141752 21 123 6.4 19.3 0.00 0.00 0.00 53
20260906141550 21 126 8.0 22.5 0.00 0.00 0.00 52
20260906141348 21 97 11.3 22.5 0.00 0.00 0.00 52
20260906141146 21 52 6.4 27.4 0.00 0.00 0.00 51
20260906140942 21 82 19.3 27.4 0.00 0.00 0.00 50
20260906140740 21 101 12.9 25.7 0.00 0.00 0.00 49
20260906140538 21 122 12.9 25.7 0.00 0.00 0.00 49
20260906140136 22 106 14.5 19.3 0.00 0.00 0.00 49
20260906140006 22 81 14.5 19.3 0.00 0.00 0.00 48
20260906135932 22 81 14.5 19.3 0.00 0.00 0.00 48
20260906135730 22 60 14.5 27.4 0.00 0.00 0.00 46
20260906135528 22 66 6.4 27.4 0.00 0.00 0.00 45
20260906135326 22 78 6.4 27.4 0.00 0.00 0.00 44
20260906135125 22 99 17.7 19.3 0.00 0.00 0.00 45
20260906134923 21 98 17.7 19.3 0.00 0.00 0.00 45
20260906134721 21 104 11.3 17.7 0.00 0.00 0.00 46
20260906134519 21 119 6.4 17.7 0.00 0.00 0.00 49
20260906134317 21 106 9.7 17.7 0.00 0.00 0.00 51
20260906134200 20 120 14.5 19.3 0.00 0.00 0.00 52
20260906134115 20 120 14.5 19.3 0.00 0.00 0.00 52
20260906133913 20 75 14.5 19.3 0.00 0.00 0.00 53
20260906133711 20 102 12.9 3.2 0.00 0.00 0.00 54
20260906133509 20 101 4.8 3.2 0.00 0.00 0.00 54
20260906133309 20 77 0.0 3.2 0.00 0.00 0.00 53
20260906133107 20 99 0.0 1.6 0.00 0.00 0.00 54
20260906132903 20 147 0.0 1.6 0.00 0.00 0.00 55
20260906132501 20 268 0.0 0.0 0.00 0.00 0.00 53
20260906132259 20 268 0.0 0.0 0.00 0.00 0.00 51
20260906132057 20 268 0.0 0.0 0.00 0.00 0.00 51
20260906131856 20 268 0.0 0.0 0.00 0.00 0.00 51
20260906131654 20 268 0.0 4.8 0.00 0.00 0.00 51
20260906131452 20 268 0.0 4.8 0.00 0.00 0.00 51
20260906131250 21 268 0.0 4.8 0.00 0.00 0.00 51
20260906131046 21 285 3.2 1.6 0.00 0.00 0.00 49
20260906130844 21 30 0.0 1.6 0.00 0.00 0.00 48
20260906130642 20 30 0.0 1.6 0.00 0.00 0.00 49
20260906130440 20 30 0.0 1.6 0.00 0.00 0.00 50
20260906130238 20 15 0.0 0.0 0.00 0.00 0.00 50
20260906130036 20 74 0.0 0.0 0.00 0.00 0.00 50
20260906125834 20 74 0.0 0.0 0.00 0.00 0.00 51
20260906125632 20 74 0.0 0.0 0.00 0.00 0.00 51
20260906125430 20 74 0.0 0.0 0.00 0.00 0.00 50
20260906125230 20 74 0.0 0.0 0.00 0.00 0.00 50
20260906125026 20 74 0.0 0.0 0.00 0.00 0.00 50
20260906124824 20 74 0.0 0.0 0.00 0.00 0.00 50
20260906124622 20 74 0.0 0.0 0.00 0.00 0.00 49
20260906124421 20 74 0.0 0.0 0.00 0.00 0.00 49
20260906124219 20 74 0.0 0.0 0.00 0.00 0.00 50
20260906124017 20 74 0.0 0.0 0.00 0.00 0.00 50
20260906123815 21 74 0.0 0.0 0.00 0.00 0.00 49
20260906123613 21 74 0.0 0.0 0.00 0.00 0.00 49
20260906123411 21 74 0.0 0.0 0.00 0.00 0.00 50
20260906123209 21 74 0.0 0.0 0.00 0.00 0.00 50
20260906122805 20 74 0.0 0.0 0.00 0.00 0.00 50
20260906122603 20 74 0.0 0.0 0.00 0.00 0.00 50
20260906122401 20 74 0.0 0.0 0.00 0.00 0.00 51
20260906122159 20 74 0.0 0.0 0.00 0.00 0.00 51
20260906121957 20 74 0.0 0.0 0.00 0.00 0.00 51
20260906121755 20 74 0.0 0.0 0.00 0.00 0.00 51
20260906121553 20 74 0.0 0.0 0.00 0.00 0.00 51
20260906121351 20 74 0.0 0.0 0.00 0.00 0.00 52
20260906120947 20 74 0.0 3.2 0.00 0.00 0.00 52
20260906120745 20 74 0.0 3.2 0.00 0.00 0.00 52
20260906120543 20 84 0.0 3.2 0.00 0.00 0.00 51
20260906120342 20 75 0.0 3.2 0.00 0.00 0.00 51
20260906120140 20 75 0.0 4.8 0.00 0.00 0.00 51
20260906115938 20 102 0.0 4.8 0.00 0.00 0.00 51
20260906115736 20 102 1.6 4.8 0.00 0.00 0.00 51
20260906115534 20 109 3.2 4.8 0.00 0.00 0.00 51
20260906115332 20 106 1.6 4.8 0.00 0.00 0.00 51
20260906115130 20 109 1.6 0.0 0.00 0.00 0.00 51
20260906114928 20 108 3.2 0.0 0.00 0.00 0.00 51
20260906114726 20 88 0.0 0.0 0.00 0.00 0.00 51
20260906114524 20 88 0.0 0.0 0.00 0.00 0.00 52
20260906114324 20 88 0.0 0.0 0.00 0.00 0.00 53
20260906114120 20 88 0.0 1.6 0.00 0.00 0.00 53
20260906113918 20 88 0.0 1.6 0.00 0.00 0.00 54
20260906113716 20 64 0.0 0.0 0.00 0.00 0.00 55
20260906113515 20 52 0.0 0.0 0.00 0.00 0.00 55
20260906113313 20 52 0.0 0.0 0.00 0.00 0.00 54
20260906113111 20 52 0.0 0.0 0.00 0.00 0.00 53
20260906112909 20 52 0.0 0.0 0.00 0.00 0.00 52
20260906112707 20 52 0.0 0.0 0.00 0.00 0.00 52
20260906112306 20 52 0.0 0.0 0.00 0.00 0.00 53
20260906112101 20 52 0.0 0.0 0.00 0.00 0.00 53
20260906111859 20 52 0.0 0.0 0.00 0.00 0.00 53
20260906111657 20 52 0.0 0.0 0.00 0.00 0.00 53
20260906111455 20 52 0.0 0.0 0.00 0.00 0.00 53
20260906111254 20 52 0.0 0.0 0.00 0.00 0.00 54
20260906111052 20 52 0.0 0.0 0.00 0.00 0.00 54
20260906110850 20 52 0.0 0.0 0.00 0.00 0.00 54
20260906110648 20 52 0.0 0.0 0.00 0.00 0.00 54
20260906110446 20 52 0.0 0.0 0.00 0.00 0.00 54
20260906110244 20 52 0.0 0.0 0.00 0.00 0.00 54
20260906110042 20 52 0.0 0.0 0.00 0.00 0.00 54
20260906105840 20 52 0.0 0.0 0.00 0.00 0.00 55
20260906105638 20 52 0.0 0.0 0.00 0.00 0.00 55
20260906105436 20 52 0.0 0.0 0.00 0.00 0.00 55
20260906105032 20 52 0.0 0.0 0.00 0.00 0.00 54
20260906104831 20 52 0.0 0.0 0.00 0.00 0.00 54
20260906104629 20 52 0.0 0.0 0.00 0.00 0.00 54
20260906104427 20 52 0.0 0.0 0.00 0.00 0.00 54
20260906104225 20 52 0.0 0.0 0.00 0.00 0.00 53
20260906104023 20 52 0.0 0.0 0.00 0.00 0.00 53
20260906103821 20 52 0.0 0.0 0.00 0.00 0.00 53
20260906103619 20 52 0.0 0.0 0.00 0.00 0.00 53
20260906103417 20 52 0.0 0.0 0.00 0.00 0.00 53
20260906103215 20 52 0.0 0.0 0.00 0.00 0.00 53
20260906103013 20 52 0.0 0.0 0.00 0.00 0.00 54
20260906102811 20 52 0.0 0.0 0.00 0.00 0.00 54
20260906102610 20 52 0.0 0.0 0.00 0.00 0.00 54
20260906102408 20 52 0.0 0.0 0.00 0.00 0.00 54
20260906102206 20 52 0.0 3.2 0.00 0.00 0.00 54
20260906102004 20 52 0.0 3.2 0.00 0.00 0.00 55
20260906101802 20 52 0.0 3.2 0.00 0.00 0.00 56
20260906101600 20 52 0.0 8.0 0.00 0.00 0.00 56
20260906101358 20 52 0.0 8.0 0.00 0.00 0.00 56
20260906101156 19 95 1.6 8.0 0.00 0.00 0.00 56
20260906100954 19 106 3.2 8.0 0.00 0.00 0.00 57
20260906100752 19 108 6.4 8.0 0.00 0.00 0.00 57
20260906100550 19 98 4.8 4.8 0.00 0.00 0.00 57
20260906100349 19 78 1.6 4.8 0.00 0.00 0.00 58
20260906100147 19 64 1.6 6.4 0.00 0.00 0.00 58
20260906095945 19 102 3.2 6.4 0.00 0.00 0.00 58
20260906095743 18 104 1.6 0.0 0.00 0.00 0.00 58
20260906095541 18 109 3.2 0.0 0.00 0.00 0.00 57
20260906095341 18 112 4.8 0.0 0.00 0.00 0.00 57
20260906095137 19 46 0.0 0.0 0.00 0.00 0.00 56
20260906094935 19 46 0.0 0.0 0.00 0.00 0.00 56
20260906094733 19 46 0.0 0.0 0.00 0.00 0.00 57
20260906094533 19 46 0.0 0.0 0.00 0.00 0.00 57
20260906094330 19 46 0.0 0.0 0.00 0.00 0.00 57
20260906094128 19 46 0.0 0.0 0.00 0.00 0.00 57
20260906093926 19 46 0.0 0.0 0.00 0.00 0.00 57
20260906093724 19 46 0.0 0.0 0.00 0.00 0.00 57
20260906093522 19 46 0.0 0.0 0.00 0.00 0.00 57
20260906093320 19 46 0.0 0.0 0.00 0.00 0.00 57
20260906093118 19 46 0.0 0.0 0.00 0.00 0.00 57
20260906092916 19 46 0.0 0.0 0.00 0.00 0.00 58
20260906092714 19 46 0.0 0.0 0.00 0.00 0.00 58
20260906092512 19 46 0.0 0.0 0.00 0.00 0.00 57
20260906092109 19 46 0.0 6.4 0.00 0.00 0.00 57
20260906091909 19 46 0.0 6.4 0.00 0.00 0.00 57
20260906091705 19 84 3.2 8.0 0.00 0.00 0.00 58
20260906091503 19 63 0.0 8.0 0.00 0.00 0.00 58
20260906091301 19 71 1.6 8.0 0.00 0.00 0.00 58
20260906091138 19 113 6.4 8.0 0.00 0.00 0.00 59
20260906091059 19 113 6.4 8.0 0.00 0.00 0.00 59
20260906090655 18 59 3.2 6.4 0.00 0.00 0.00 60
20260906090453 18 90 4.8 6.4 0.00 0.00 0.00 60
20260906090251 18 82 1.6 6.4 0.00 0.00 0.00 60
20260906090050 18 85 3.2 6.4 0.00 0.00 0.00 60
20260906085937 18 67 1.6 6.4 0.00 0.00 0.00 59
20260906085848 18 67 1.6 6.4 0.00 0.00 0.00 59
20260906085646 18 81 1.6 4.8 0.00 0.00 0.00 58
20260906085444 18 105 3.2 4.8 0.00 0.00 0.00 57
20260906085242 18 97 3.2 6.4 0.00 0.00 0.00 57
20260906085040 18 112 3.2 6.4 0.00 0.00 0.00 57
20260906084636 19 123 3.2 4.8 0.00 0.00 0.00 58
20260906084434 19 127 1.6 4.8 0.00 0.00 0.00 59
20260906084232 19 127 1.6 6.4 0.00 0.00 0.00 59
20260906084030 19 129 3.2 6.4 0.00 0.00 0.00 59
20260906083829 19 113 1.6 6.4 0.00 0.00 0.00 59
20260906083627 19 113 3.2 0.0 0.00 0.00 0.00 59
20260906083425 19 126 4.8 0.0 0.00 0.00 0.00 60
20260906083223 19 195 0.0 0.0 0.00 0.00 0.00 60
20260906083021 18 195 0.0 0.0 0.00 0.00 0.00 60
20260906082819 19 195 0.0 0.0 0.00 0.00 0.00 60
20260906082617 18 195 0.0 0.0 0.00 0.00 0.00 60
20260906082415 18 195 0.0 0.0 0.00 0.00 0.00 60
20260906082213 18 195 0.0 0.0 0.00 0.00 0.00 60
20260906082011 18 195 0.0 0.0 0.00 0.00 0.00 60
20260906081810 18 195 0.0 0.0 0.00 0.00 0.00 60
20260906081608 18 195 0.0 0.0 0.00 0.00 0.00 60
20260906081406 18 195 0.0 0.0 0.00 0.00 0.00 60
20260906081204 18 195 0.0 0.0 0.00 0.00 0.00 61
20260906080800 18 195 0.0 0.0 0.00 0.00 0.00 61
20260906080558 18 195 0.0 0.0 0.00 0.00 0.00 60
20260906080356 18 195 0.0 0.0 0.00 0.00 0.00 60
20260906080154 18 195 0.0 0.0 0.00 0.00 0.00 59
20260906075952 18 195 0.0 0.0 0.00 0.00 0.00 59
20260906075751 18 195 0.0 0.0 0.00 0.00 0.00 59
20260906075631 18 195 0.0 0.0 0.00 0.00 0.00 59
20260906075549 18 195 0.0 0.0 0.00 0.00 0.00 59
20260906075431 18 195 0.0 0.0 0.00 0.00 0.00 59
20260906075347 18 195 0.0 0.0 0.00 0.00 0.00 59
20260906075145 18 195 0.0 0.0 0.00 0.00 0.00 59
20260906074943 18 195 0.0 0.0 0.00 0.00 0.00 59
20260906074741 18 195 0.0 0.0 0.00 0.00 0.00 59
20260906074539 18 195 0.0 0.0 0.00 0.00 0.00 58
20260906074337 18 195 0.0 0.0 0.00 0.00 0.00 58
20260906074135 18 195 0.0 0.0 0.00 0.00 0.00 57
20260906073933 18 195 0.0 0.0 0.00 0.00 0.00 58
20260906073731 18 195 0.0 0.0 0.00 0.00 0.00 57
20260906073530 18 195 0.0 0.0 0.00 0.00 0.00 58
20260906073328 18 195 0.0 0.0 0.00 0.00 0.00 58
20260906073126 18 195 0.0 0.0 0.00 0.00 0.00 58
20260906072924 18 195 0.0 0.0 0.00 0.00 0.00 58
20260906072722 18 195 0.0 0.0 0.00 0.00 0.00 58
20260906072520 18 195 0.0 0.0 0.00 0.00 0.00 57
20260906072318 18 195 0.0 0.0 0.00 0.00 0.00 58
20260906072116 18 195 0.0 0.0 0.00 0.00 0.00 58
20260906071914 18 195 0.0 0.0 0.00 0.00 0.00 58
20260906071712 18 195 0.0 0.0 0.00 0.00 0.00 59
20260906071510 18 195 0.0 0.0 0.00 0.00 0.00 60
20260906071309 18 195 0.0 0.0 0.00 0.00 0.00 60
20260906071107 18 195 0.0 0.0 0.00 0.00 0.00 59
20260906070905 18 195 0.0 0.0 0.00 0.00 0.00 59
20260906070703 18 195 0.0 0.0 0.00 0.00 0.00 59
20260906070259 18 195 0.0 0.0 0.00 0.00 0.00 59
20260906070057 18 195 0.0 0.0 0.00 0.00 0.00 59
20260906065855 18 195 0.0 0.0 0.00 0.00 0.00 59
20260906065653 18 195 0.0 0.0 0.00 0.00 0.00 59
20260906065451 18 195 0.0 0.0 0.00 0.00 0.00 60
20260906065250 18 195 0.0 0.0 0.00 0.00 0.00 60
20260906065048 18 195 0.0 0.0 0.00 0.00 0.00 61
20260906064846 18 195 0.0 0.0 0.00 0.00 0.00 62
20260906064644 18 195 0.0 0.0 0.00 0.00 0.00 62
20260906064442 18 195 0.0 0.0 0.00 0.00 0.00 61
20260906064240 18 195 0.0 0.0 0.00 0.00 0.00 60
20260906064038 18 195 0.0 0.0 0.00 0.00 0.00 59
20260906063836 18 195 0.0 0.0 0.00 0.00 0.00 58
20260906063634 18 195 0.0 0.0 0.00 0.00 0.00 58
20260906063432 18 195 0.0 0.0 0.00 0.00 0.00 58
20260906063230 18 195 0.0 0.0 0.00 0.00 0.00 58
20260906063029 18 195 0.0 0.0 0.00 0.00 0.00 57
20260906062827 18 195 0.0 0.0 0.00 0.00 0.00 57
20260906062625 18 195 0.0 0.0 0.00 0.00 0.00 57
20260906062423 18 195 0.0 0.0 0.00 0.00 0.00 57
20260906062221 18 195 0.0 0.0 0.00 0.00 0.00 56
20260906062019 18 195 0.0 0.0 0.00 0.00 0.00 56
20260906061817 18 195 0.0 0.0 0.00 0.00 0.00 55
20260906061615 18 195 0.0 0.0 0.00 0.00 0.00 55
20260906061413 18 195 0.0 0.0 0.00 0.00 0.00 54
20260906061211 18 195 0.0 0.0 0.00 0.00 0.00 53
20260906060808 18 195 0.0 0.0 0.00 0.00 0.00 54
20260906060606 18 195 0.0 0.0 0.00 0.00 0.00 55
20260906060404 18 195 0.0 0.0 0.00 0.00 0.00 54
20260906060202 18 195 0.0 0.0 0.00 0.00 0.00 54
20260906060000 18 195 0.0 0.0 0.00 0.00 0.00 54
20260906055758 18 195 0.0 0.0 0.00 0.00 0.00 55
20260906055556 18 195 0.0 0.0 0.00 0.00 0.00 55
20260906055354 18 195 0.0 0.0 0.00 0.00 0.00 55
20260906055154 18 195 0.0 0.0 0.00 0.00 0.00 55
20260906054952 18 195 0.0 0.0 0.00 0.00 0.00 55
20260906054749 19 195 0.0 0.0 0.00 0.00 0.00 55
20260906054619 18 195 0.0 0.0 0.00 0.00 0.00 55
20260906054547 18 195 0.0 0.0 0.00 0.00 0.00 55
20260906054345 19 195 0.0 0.0 0.00 0.00 0.00 55
20260906054143 19 195 0.0 0.0 0.00 0.00 0.00 55
20260906053941 19 195 0.0 0.0 0.00 0.00 0.00 54
20260906053739 19 195 0.0 0.0 0.00 0.00 0.00 55
20260906053537 19 195 0.0 0.0 0.00 0.00 0.00 55
20260906053133 19 195 0.0 0.0 0.00 0.00 0.00 56
20260906052931 20 195 0.0 0.0 0.00 0.00 0.00 56
20260906052730 20 195 0.0 0.0 0.00 0.00 0.00 57
20260906052528 20 195 0.0 0.0 0.00 0.00 0.00 57
20260906052326 20 195 0.0 0.0 0.00 0.00 0.00 57
20260906052124 20 195 0.0 0.0 0.00 0.00 0.00 57
20260906051922 19 195 0.0 0.0 0.00 0.00 0.00 57
20260906051721 19 195 0.0 0.0 0.00 0.00 0.00 57
20260906051518 19 195 0.0 0.0 0.00 0.00 0.00 57
20260906051358 19 195 0.0 0.0 0.00 0.00 0.00 55
20260906051316 19 195 0.0 0.0 0.00 0.00 0.00 55
20260906051114 19 195 0.0 0.0 0.00 0.00 0.00 55
20260906050912 19 195 0.0 0.0 0.00 0.00 0.00 55
20260906050711 19 195 0.0 0.0 0.00 0.00 0.00 56
20260906050307 20 195 0.0 0.0 0.00 0.00 0.00 57
20260906050107 20 195 0.0 0.0 0.00 0.00 0.00 55
20260906045903 20 195 0.0 0.0 0.00 0.00 0.00 56
20260906045701 20 195 0.0 0.0 0.00 0.00 0.00 56
20260906045501 20 195 0.0 0.0 0.00 0.00 0.00 57
20260906045257 20 195 0.0 0.0 0.00 0.00 0.00 57
20260906045057 20 195 0.0 0.0 0.00 0.00 0.00 57
20260906044853 20 195 0.0 0.0 0.00 0.00 0.00 57
20260906044651 20 195 0.0 0.0 0.00 0.00 0.00 57
20260906044449 20 195 0.0 0.0 0.00 0.00 0.00 56
20260906044249 20 195 0.0 0.0 0.00 0.00 0.00 56
20260906044046 20 195 0.0 0.0 0.00 0.00 0.00 56
20260906043844 20 195 0.0 0.0 0.00 0.00 0.00 56
20260906043642 20 195 0.0 0.0 0.00 0.00 0.00 56
20260906043440 20 195 0.0 0.0 0.00 0.00 0.00 57
20260906043238 20 195 0.0 0.0 0.00 0.00 0.00 57
20260906043036 20 195 0.0 0.0 0.00 0.00 0.00 57
20260906042834 20 195 0.0 0.0 0.00 0.00 0.00 56
20260906042632 20 195 0.0 0.0 0.00 0.00 0.00 56
20260906042430 20 195 0.0 0.0 0.00 0.00 0.00 55
20260906042228 20 195 0.0 0.0 0.00 0.00 0.00 55
20260906042026 20 195 0.0 0.0 0.00 0.00 0.00 55
20260906041825 20 195 0.0 0.0 0.00 0.00 0.00 57
20260906041623 20 195 0.0 0.0 0.00 0.00 0.00 57
20260906041421 21 195 0.0 0.0 0.00 0.00 0.00 57
20260906041220 21 195 0.0 0.0 0.00 0.00 0.00 57
20260906041017 21 195 0.0 0.0 0.00 0.00 0.00 56
20260906040815 21 195 0.0 0.0 0.00 0.00 0.00 57
20260906040613 21 195 0.0 0.0 0.00 0.00 0.00 57
20260906040411 21 195 0.0 0.0 0.00 0.00 0.00 57
20260906040007 21 195 0.0 0.0 0.00 0.00 0.00 54
20260906035805 21 195 0.0 0.0 0.00 0.00 0.00 55
20260906035603 21 195 0.0 0.0 0.00 0.00 0.00 55
20260906035401 21 195 0.0 0.0 0.00 0.00 0.00 56
20260906035159 21 195 0.0 0.0 0.00 0.00 0.00 55
20260906034957 21 195 0.0 0.0 0.00 0.00 0.00 55
20260906034755 21 195 0.0 0.0 0.00 0.00 0.00 55
20260906034553 21 195 0.0 0.0 0.00 0.00 0.00 54
20260906034351 21 195 0.0 0.0 0.00 0.00 0.00 54
20260906034149 21 195 0.0 0.0 0.00 0.00 0.00 55
20260906033947 21 195 0.0 0.0 0.00 0.00 0.00 55
20260906033745 21 195 0.0 0.0 0.00 0.00 0.00 54
20260906033543 21 195 0.0 0.0 0.00 0.00 0.00 54
20260906033341 21 195 0.0 0.0 0.00 0.00 0.00 56
20260906033139 21 195 0.0 0.0 0.00 0.00 0.00 56
20260906032937 21 195 0.0 0.0 0.00 0.00 0.00 56
20260906032735 21 195 0.0 0.0 0.00 0.00 0.00 56
20260906032533 21 195 0.0 0.0 0.00 0.00 0.00 56
20260906032129 21 195 0.0 0.0 0.00 0.00 0.00 56
20260906031927 22 195 0.0 0.0 0.00 0.00 0.00 55
20260906031726 22 195 0.0 0.0 0.00 0.00 0.00 53
20260906031524 22 195 0.0 0.0 0.00 0.00 0.00 52
20260906031322 22 195 0.0 0.0 0.00 0.00 0.00 52
20260906031120 22 195 0.0 0.0 0.00 0.00 0.00 53
20260906030918 22 195 0.0 0.0 0.00 0.00 0.00 54
20260906030716 22 195 0.0 0.0 0.00 0.00 0.00 54
20260906030514 22 195 0.0 0.0 0.00 0.00 0.00 54
20260906030312 22 195 0.0 0.0 0.00 0.00 0.00 54
20260906030110 22 195 0.0 1.6 0.00 0.00 0.00 53
20260906025908 22 195 0.0 1.6 0.00 0.00 0.00 53
20260906025504 22 292 0.0 0.0 0.00 0.00 0.00 51
20260906025306 23 292 0.0 0.0 0.00 0.00 0.00 51
20260906025100 22 292 0.0 3.2 0.00 0.00 0.00 50
20260906024858 23 292 0.0 3.2 0.00 0.00 0.00 50
20260906024656 23 292 0.0 4.8 0.00 0.00 0.00 49
20260906024454 23 292 0.0 4.8 0.00 0.00 0.00 50
20260906024252 23 292 3.2 4.8 0.00 0.00 0.00 50
20260906024050 23 298 3.2 4.8 0.00 0.00 0.00 50
20260906023848 23 300 3.2 4.8 0.00 0.00 0.00 50
20260906023646 23 298 3.2 4.8 0.00 0.00 0.00 50
20260906023444 23 296 3.2 4.8 0.00 0.00 0.00 50
20260906023242 23 278 3.2 8.0 0.00 0.00 0.00 49
20260906023040 23 229 0.0 8.0 0.00 0.00 0.00 49
20260906022839 23 229 0.0 8.0 0.00 0.00 0.00 49
20260906022637 23 286 3.2 3.2 0.00 0.00 0.00 49
20260906022435 23 284 1.6 3.2 0.00 0.00 0.00 48
20260906022233 23 284 3.2 4.8 0.00 0.00 0.00 48
20260906021829 24 251 0.0 4.8 0.00 0.00 0.00 47
20260906021627 24 251 0.0 6.4 0.00 0.00 0.00 47
20260906021425 24 274 3.2 6.4 0.00 0.00 0.00 46
20260906021223 25 268 4.8 9.7 0.00 0.00 0.00 47
20260906021021 25 264 0.0 9.7 0.00 0.00 0.00 47
20260906020819 25 299 4.8 9.7 0.00 0.00 0.00 46
20260906020617 25 251 1.6 8.0 0.00 0.00 0.00 46
20260906020415 25 296 1.6 8.0 0.00 0.00 0.00 46
20260906020213 25 275 4.8 11.3 0.00 0.00 0.00 46
20260906020011 25 281 4.8 11.3 0.00 0.00 0.00 46
20260906015809 25 281 3.2 11.3 0.00 0.00 0.00 45
20260906015607 25 274 3.2 9.7 0.00 0.00 0.00 45
20260906015405 25 270 9.7 9.7 0.00 0.00 0.00 45
20260906015203 25 265 4.8 11.3 0.00 0.00 0.00 45
20260906015001 25 265 6.4 11.3 0.00 0.00 0.00 44
20260906014759 25 257 4.8 11.3 0.00 0.00 0.00 45
20260906014557 26 255 9.7 12.9 0.00 0.00 0.00 45
20260906014355 26 246 4.8 12.9 0.00 0.00 0.00 44
20260906014153 26 261 6.4 12.9 0.00 0.00 0.00 43
20260906013951 26 250 9.7 12.9 0.00 0.00 0.00 43
20260906013749 26 255 8.0 12.9 0.00 0.00 0.00 42
20260906013346 26 293 3.2 12.9 0.00 0.00 0.00 41
20260906013144 26 260 6.4 14.5 0.00 0.00 0.00 41
20260906012942 26 284 8.0 14.5 0.00 0.00 0.00 41
20260906012740 26 248 6.4 17.7 0.00 0.00 0.00 40
20260906012538 26 272 8.0 17.7 0.00 0.00 0.00 40
20260906012336 26 264 11.3 17.7 0.00 0.00 0.00 40
20260906012134 26 274 8.0 19.3 0.00 0.00 0.00 40
20260906011932 26 262 16.1 19.3 0.00 0.00 0.00 40
20260906011528 26 285 12.9 22.5 0.00 0.00 0.00 40
20260906011326 26 251 16.1 22.5 0.00 0.00 0.00 39
20260906011124 26 265 14.5 20.9 0.00 0.00 0.00 38
20260906010922 26 289 12.9 20.9 0.00 0.00 0.00 38
20260906010720 26 265 9.7 20.9 0.00 0.00 0.00 38
20260906010318 26 282 12.9 20.9 0.00 0.00 0.00 38
20260906005912 26 271 16.1 19.3 0.00 0.00 0.00 37
20260906005508 26 257 12.9 22.5 0.00 0.00 0.00 38
20260906005307 26 271 9.7 22.5 0.00 0.00 0.00 38
20260906004903 27 270 9.7 25.7 0.00 0.00 0.00 38
20260906004703 27 271 14.5 22.5 0.00 0.00 0.00 38
20260906004459 27 265 16.1 22.5 0.00 0.00 0.00 37
20260906004257 27 250 12.9 22.5 0.00 0.00 0.00 36
20260906004055 27 268 11.3 16.1 0.00 0.00 0.00 37
20260906003853 27 267 19.3 16.1 0.00 0.00 0.00 36
20260906003651 27 272 8.0 20.9 0.00 0.00 0.00 36
20260906003449 27 255 11.3 20.9 0.00 0.00 0.00 36
20260906003247 27 247 1.6 20.9 0.00 0.00 0.00 36
20260906003046 27 267 11.3 19.3 0.00 0.00 0.00 36
20260906002845 27 260 6.4 19.3 0.00 0.00 0.00 36
20260906002642 27 279 9.7 22.5 0.00 0.00 0.00 36
20260906002439 27 285 8.0 22.5 0.00 0.00 0.00 37
20260906002239 27 261 9.7 22.5 0.00 0.00 0.00 37
20260906002035 27 261 17.7 22.5 0.00 0.00 0.00 37
20260906001835 27 261 20.9 22.5 0.00 0.00 0.00 36
20260906001631 28 262 17.7 14.5 0.00 0.00 0.00 35
20260906001429 28 257 12.9 14.5 0.00 0.00 0.00 34
20260906001227 28 270 1.6 19.3 0.00 0.00 0.00 33
20260906001025 28 285 11.3 19.3 0.00 0.00 0.00 33
20260906000825 28 271 9.7 19.3 0.00 0.00 0.00 32
20260906000621 28 302 11.3 20.9 0.00 0.00 0.00 34
20260906000419 28 267 11.3 20.9 0.00 0.00 0.00 33
20260906000219 28 267 9.7 19.3 0.00 0.00 0.00 33
20260906000015 28 257 8.0 19.3 0.00 0.00 0.00 32
20260905235813 28 275 16.1 19.3 0.00 0.00 0.00 33
20260905235612 28 261 6.4 22.5 0.00 0.00 0.00 33
20260905235410 28 251 12.9 22.5 0.00 0.00 0.00 33
20260905234806 28 289 11.3 24.1 0.00 0.00 0.00 32
20260905234602 28 255 9.7 20.9 0.00 0.00 0.00 31
20260905234401 28 272 19.3 20.9 0.00 0.00 0.00 32
20260905234158 28 270 12.9 27.4 0.00 0.00 0.00 32
20260905233958 28 257 11.3 27.4 0.00 0.00 0.00 32
20260905233756 28 248 9.7 27.4 0.00 0.00 0.00 31
20260905233552 28 246 16.1 19.3 0.00 0.00 0.00 31
20260905233350 28 271 11.3 19.3 0.00 0.00 0.00 31
20260905233148 28 288 4.8 24.1 0.00 0.00 0.00 32
20260905232946 28 282 8.0 24.1 0.00 0.00 0.00 33
20260905232748 28 260 12.9 24.1 0.00 0.00 0.00 33
20260905232542 28 261 16.1 25.7 0.00 0.00 0.00 33
20260905232340 28 260 11.3 25.7 0.00 0.00 0.00 33
20260905232138 28 257 14.5 25.7 0.00 0.00 0.00 32
20260905231936 28 251 20.9 25.7 0.00 0.00 0.00 33
20260905231736 28 270 8.0 20.9 0.00 0.00 0.00 34
20260905231533 28 265 20.9 20.9 0.00 0.00 0.00 34
20260905231331 29 254 16.1 20.9 0.00 0.00 0.00 34
20260905231129 28 275 14.5 24.1 0.00 0.00 0.00 33
20260905230928 29 247 14.5 24.1 0.00 0.00 0.00 34
20260905230726 28 279 12.9 25.7 0.00 0.00 0.00 34
20260905230524 29 262 17.7 25.7 0.00 0.00 0.00 34
20260905230321 29 246 17.7 25.7 0.00 0.00 0.00 34
20260905230119 29 260 12.9 24.1 0.00 0.00 0.00 34
20260905225917 29 293 9.7 24.1 0.00 0.00 0.00 33
20260905225717 29 260 17.7 22.5 0.00 0.00 0.00 33
20260905225515 30 274 11.3 22.5 0.00 0.00 0.00 33
20260905225312 30 296 11.3 22.5 0.00 0.00 0.00 33
20260905225110 30 185 4.8 19.3 0.00 0.00 0.00 33
20260905224907 30 250 19.3 19.3 0.00 0.00 0.00 33
20260905224707 30 226 0.0 20.9 0.00 0.00 0.00 35
20260905224303 30 247 12.9 20.9 0.00 0.00 0.00 36
20260905224101 30 255 3.2 25.7 0.00 0.00 0.00 36
20260905223859 30 250 17.7 25.7 0.00 0.00 0.00 37
20260905223657 30 262 12.9 24.1 0.00 0.00 0.00 37
20260905223455 30 272 11.3 24.1 0.00 0.00 0.00 37
20260905223253 30 254 22.5 24.1 0.00 0.00 0.00 37
20260905223051 29 260 14.5 25.7 0.00 0.00 0.00 38
20260905222847 29 271 20.9 25.7 0.00 0.00 0.00 38
20260905222647 29 262 14.5 20.9 0.00 0.00 0.00 38
20260905222445 30 260 22.5 20.9 0.00 0.00 0.00 37
20260905222243 30 253 14.5 22.5 0.00 0.00 0.00 37
20260905222042 29 240 16.1 22.5 0.00 0.00 0.00 37
20260905221838 29 250 11.3 22.5 0.00 0.00 0.00 39
20260905221638 29 282 11.3 24.1 0.00 0.00 0.00 37
20260905221434 29 261 11.3 24.1 0.00 0.00 0.00 38
20260905221234 29 261 16.1 25.7 0.00 0.00 0.00 39
20260905221030 28 247 8.0 25.7 0.00 0.00 0.00 39
20260905220828 29 248 11.3 25.7 0.00 0.00 0.00 39
20260905220627 30 254 11.3 22.5 0.00 0.00 0.00 38
20260905220424 30 272 11.3 22.5 0.00 0.00 0.00 38
20260905220222 30 267 12.9 24.1 0.00 0.00 0.00 38
20260905220022 30 267 16.1 24.1 0.00 0.00 0.00 38
20260905215819 30 237 1.6 24.1 0.00 0.00 0.00 38
20260905215618 30 262 16.1 20.9 0.00 0.00 0.00 39
20260905215212 30 282 16.1 30.6 0.00 0.00 0.00 38
20260905214808 30 257 14.5 30.6 0.00 0.00 0.00 40
20260905214608 29 277 11.3 24.1 0.00 0.00 0.00 40
20260905214404 30 264 30.6 24.1 0.00 0.00 0.00 39
20260905214204 30 260 9.7 22.5 0.00 0.00 0.00 38
20260905214002 30 234 19.3 22.5 0.00 0.00 0.00 38
20260905213800 30 246 17.7 22.5 0.00 0.00 0.00 37
20260905213558 30 271 12.9 24.1 0.00 0.00 0.00 37
20260905213356 30 274 8.0 24.1 0.00 0.00 0.00 36
20260905213154 30 262 20.9 25.7 0.00 0.00 0.00 36
20260905212952 30 268 11.3 25.7 0.00 0.00 0.00 36
20260905212751 30 291 14.5 25.7 0.00 0.00 0.00 36
20260905212548 30 243 12.9 24.1 0.00 0.00 0.00 35
20260905212346 30 268 17.7 24.1 0.00 0.00 0.00 33
20260905212144 30 271 19.3 22.5 0.00 0.00 0.00 34
20260905211942 30 268 16.1 22.5 0.00 0.00 0.00 35
20260905211739 30 255 14.5 22.5 0.00 0.00 0.00 34
20260905211538 30 264 17.7 22.5 0.00 0.00 0.00 33
20260905211337 30 278 11.3 22.5 0.00 0.00 0.00 33
20260905211135 30 270 9.7 24.1 0.00 0.00 0.00 32
20260905210731 31 284 8.0 25.7 0.00 0.00 0.00 32
20260905210527 31 264 11.3 25.7 0.00 0.00 0.00 32
20260905210327 31 260 14.5 25.7 0.00 0.00 0.00 31
20260905205923 30 254 9.7 20.9 0.00 0.00 0.00 29
20260905205721 31 247 17.7 24.1 0.00 0.00 0.00 28
20260905205517 31 260 14.5 24.1 0.00 0.00 0.00 27
20260905205317 31 275 14.5 24.1 0.00 0.00 0.00 28
20260905205115 31 248 11.3 24.1 0.00 0.00 0.00 25
20260905204913 31 262 16.1 24.1 0.00 0.00 0.00 25
20260905204709 30 262 8.0 19.3 0.00 0.00 0.00 25
20260905204509 30 268 19.3 19.3 0.00 0.00 0.00 25
20260905204308 30 307 8.0 19.3 0.00 0.00 0.00 25
20260905204105 31 272 11.3 14.5 0.00 0.00 0.00 24
20260905203903 31 299 6.4 14.5 0.00 0.00 0.00 23
20260905203701 31 165 0.0 22.5 0.00 0.00 0.00 24
20260905203500 31 284 8.0 22.5 0.00 0.00 0.00 25
20260905203257 30 282 9.7 22.5 0.00 0.00 0.00 25
20260905203055 31 275 16.1 19.3 0.00 0.00 0.00 25
20260905202853 30 265 14.5 19.3 0.00 0.00 0.00 25
20260905202651 30 254 16.1 17.7 0.00 0.00 0.00 25
20260905202448 30 326 1.6 17.7 0.00 0.00 0.00 25
20260905202248 30 307 6.4 17.7 0.00 0.00 0.00 25
20260905202046 30 272 16.1 14.5 0.00 0.00 0.00 25
20260905201844 30 334 0.0 14.5 0.00 0.00 0.00 26
20260905201440 30 198 0.0 19.3 0.00 0.00 0.00 26
20260905201238 30 262 12.9 11.3 0.00 0.00 0.00 25
20260905201034 30 292 12.9 11.3 0.00 0.00 0.00 25
20260905200834 30 291 8.0 11.3 0.00 0.00 0.00 25
20260905200630 30 275 11.3 12.9 0.00 0.00 0.00 25
20260905200428 30 206 0.0 12.9 0.00 0.00 0.00 26
20260905200226 30 306 3.2 16.1 0.00 0.00 0.00 25
20260905200024 30 322 0.0 16.1 0.00 0.00 0.00 26
20260905195822 30 277 9.7 16.1 0.00 0.00 0.00 25
20260905195621 30 255 8.0 17.7 0.00 0.00 0.00 25
20260905195419 30 274 8.0 17.7 0.00 0.00 0.00 26
20260905195218 30 277 0.0 22.5 0.00 0.00 0.00 25
20260905195016 30 251 11.3 22.5 0.00 0.00 0.00 25
20260905194814 30 232 6.4 22.5 0.00 0.00 0.00 26
20260905194611 30 272 11.3 11.3 0.00 0.00 0.00 24
20260905194409 30 267 19.3 11.3 0.00 0.00 0.00 24
20260905194208 30 268 8.0 4.8 0.00 0.00 0.00 25
20260905194005 30 156 0.0 4.8 0.00 0.00 0.00 25
20260905193803 30 137 4.8 4.8 0.00 0.00 0.00 24
20260905193602 30 195 0.0 6.4 0.00 0.00 0.00 23